Back to catalog

STARLINK-32288

AliveCommunicationsVLEO
NORAD 60943·PAYLOAD·🇺🇸 United States

Launched Aug 31, 2024 from Vandenberg Space Force Base

Loading…

Next Passes (next 24 hours)

TLE

FreshSource: CelesTrak SupGP

Epoch: Sep 14, 2026, 19:32 UTC

1 60943C 24155V   26257.81437500 -.00017457  00000+0 -51610-3 0  2577
2 60943  53.1579 328.0154 0001267  81.6790 206.9766 15.34378902    13

Track STARLINK-32288 in real time with AllMySat

Download on the App Store